COSMOS 2414 1 28521U 05002A 21019.20633795 .00000050 00000-0 28800-4 0 9990 2 28521 82.9507 97.0089 0039618 197.8584 162.1199 13.87628105810237 SL-8 R/B 1 28522U 05002B 21018.68779283 .00000062 00000-0 37033-4 0 9996 2 28522 82.9457 81.4628 0046900 121.1144 239.4634 13.89588088811197 TATIANA 1 28523U 05002C 21019.19566287 .00000060 00000-0 37569-4 0 9994 2 28523 82.9496 98.9792 0037624 206.7590 153.1633 13.87523261810071